AAL1364 KCLT-KMIA

Flight info

Callsign AAL1364
Flight time N/A
Altitude 40000
Route ICONS5 NOOKS WURFL Q83 JEVED Q97 DEBRL CSTAL3
Aircraft B772/H-SDE2E3FGHIJ5LORVWXY/LB1D1

Departure

Time 2026-05-04 12:12
Airport Charlotte Douglas International Airport (KCLT)

Arrival

Time N/A
Airport Miami International Airport (KMIA)
Time Latitude Longitude Altitude Speed Heading
2026-05-04 11:53 35.22071 -80.93881 735 ft 0 kts 263°
2026-05-04 12:04 35.22072 -80.93876 736 ft 3 kts 264°
2026-05-04 12:05 35.22071 -80.93844 735 ft 4 kts 286°
2026-05-04 12:05 35.22060 -80.93816 733 ft 4 kts 319°
2026-05-04 12:05 35.22037 -80.93801 735 ft 4 kts 349°
2026-05-04 12:05 35.22026 -80.93799 735 ft 0 kts 356°
2026-05-04 12:08 35.22034 -80.93800 736 ft 5 kts 356°
2026-05-04 12:08 35.22107 -80.93806 737 ft 15 kts 356°
2026-05-04 12:09 35.22195 -80.93757 737 ft 15 kts 41°
2026-05-04 12:09 35.22293 -80.93739 737 ft 15 kts 357°
2026-05-04 12:09 35.22396 -80.93745 738 ft 15 kts 357°
2026-05-04 12:09 35.22479 -80.93737 738 ft 0 kts 32°
2026-05-04 12:10 35.22494 -80.93720 739 ft 5 kts 54°
2026-05-04 12:11 35.22496 -80.93655 740 ft 11 kts 111°
2026-05-04 12:11 35.22420 -80.93614 740 ft 16 kts 173°
2026-05-04 12:11 35.22170 -80.93591 739 ft 72 kts 176°
2026-05-04 12:11 35.21411 -80.93527 739 ft 144 kts 176°
2026-05-04 12:12 35.20270 -80.93401 1119 ft 173 kts 174°
2026-05-04 12:12 35.19080 -80.93256 2127 ft 172 kts 179°
2026-05-04 12:12 35.17825 -80.93189 2509 ft 197 kts 181°
2026-05-04 12:12 35.16344 -80.93139 2731 ft 227 kts 181°
2026-05-04 12:13 35.14697 -80.93176 3229 ft 241 kts 187°
2026-05-04 12:14 35.02140 -80.94505 8462 ft 273 kts 188°
2026-05-04 12:15 35.00231 -80.94694 9164 ft 277 kts 188°
2026-05-04 12:15 34.98294 -80.94885 9866 ft 281 kts 189°
2026-05-04 12:15 34.96343 -80.95077 10353 ft 293 kts 189°
2026-05-04 12:15 34.94223 -80.95292 10534 ft 318 kts 189°
2026-05-04 12:16 34.91955 -80.95515 10995 ft 333 kts 188°
2026-05-04 12:16 34.89608 -80.95740 11698 ft 342 kts 188°
2026-05-04 12:16 34.87216 -80.95969 12657 ft 347 kts 188°
2026-05-04 12:16 34.84790 -80.96202 13737 ft 352 kts 188°
2026-05-04 12:17 34.82325 -80.96440 14679 ft 357 kts 189°
2026-05-04 12:17 34.79828 -80.96681 15639 ft 361 kts 188°
2026-05-04 12:17 34.77297 -80.96835 16600 ft 367 kts 186°
2026-05-04 12:17 34.74728 -80.96910 17543 ft 372 kts 186°
2026-05-04 12:18 34.72154 -80.96968 18454 ft 376 kts 186°
2026-05-04 12:18 34.69511 -80.97034 19243 ft 381 kts 186°
2026-05-04 12:18 34.66836 -80.97110 20028 ft 386 kts 187°
2026-05-04 12:18 34.64126 -80.97195 20801 ft 391 kts 187°
2026-05-04 12:19 34.61380 -80.97286 21595 ft 396 kts 188°
2026-05-04 12:19 34.58613 -80.97478 22385 ft 400 kts 190°
2026-05-04 12:19 34.55819 -80.97751 23179 ft 405 kts 191°
2026-05-04 12:19 34.53027 -80.98045 23909 ft 410 kts 191°
2026-05-04 12:20 34.50165 -80.98343 24589 ft 414 kts 191°
2026-05-04 12:20 34.47275 -80.98633 25299 ft 417 kts 191°
2026-05-04 12:20 34.44367 -80.98915 26029 ft 420 kts 191°
2026-05-04 12:20 34.41434 -80.99193 26722 ft 424 kts 191°
2026-05-04 12:21 34.38521 -80.99467 27363 ft 427 kts 191°
2026-05-04 12:21 34.35533 -80.99745 28035 ft 431 kts 191°
2026-05-04 12:21 34.32531 -81.00024 28680 ft 434 kts 191°
2026-05-04 12:21 34.29506 -81.00305 29300 ft 438 kts 191°
2026-05-04 12:22 34.26482 -81.00586 29880 ft 441 kts 191°
2026-05-04 12:22 34.23404 -81.00872 30413 ft 445 kts 191°
2026-05-04 12:22 34.20303 -81.01159 30902 ft 447 kts 191°
2026-05-04 12:22 34.17186 -81.01447 31379 ft 450 kts 191°
2026-05-04 12:23 34.14045 -81.01738 31785 ft 453 kts 191°
2026-05-04 12:23 34.10889 -81.02031 32218 ft 456 kts 191°
2026-05-04 12:23 34.07707 -81.02324 32639 ft 459 kts 191°
2026-05-04 12:23 34.04501 -81.02620 33043 ft 463 kts 191°
2026-05-04 12:24 34.01315 -81.02914 33432 ft 466 kts 191°
2026-05-04 12:24 33.98066 -81.03195 33819 ft 470 kts 190°
2026-05-04 12:24 33.94766 -81.03243 34177 ft 476 kts 187°
2026-05-04 12:24 33.91431 -81.03207 34474 ft 479 kts 186°
2026-05-04 12:25 33.88119 -81.03158 34740 ft 482 kts 186°
2026-05-04 12:25 33.84750 -81.03108 35055 ft 484 kts 186°
2026-05-04 12:25 33.81378 -81.03062 35378 ft 485 kts 186°
2026-05-04 12:25 33.78006 -81.03022 35754 ft 484 kts 186°
2026-05-04 12:26 33.74641 -81.02985 36171 ft 483 kts 186°
2026-05-04 12:26 33.71277 -81.02952 36593 ft 482 kts 187°
2026-05-04 12:26 33.67920 -81.02921 36974 ft 482 kts 187°
2026-05-04 12:26 33.64572 -81.02891 37343 ft 481 kts 187°
2026-05-04 12:27 33.61223 -81.02862 37676 ft 481 kts 187°
2026-05-04 12:27 33.57870 -81.02833 38067 ft 480 kts 187°
2026-05-04 12:27 33.54569 -81.02803 38436 ft 480 kts 187°
2026-05-04 12:27 33.51234 -81.02774 38780 ft 479 kts 187°
2026-05-04 12:28 33.47891 -81.02744 39048 ft 479 kts 187°
2026-05-04 12:28 33.44544 -81.02714 39334 ft 479 kts 187°
2026-05-04 12:28 33.41215 -81.02684 39618 ft 478 kts 187°
2026-05-04 12:28 33.37888 -81.02654 39886 ft 478 kts 187°
2026-05-04 12:29 33.34563 -81.02624 40040 ft 480 kts 187°
2026-05-04 12:29 33.31214 -81.02597 40086 ft 482 kts 187°
2026-05-04 12:29 33.24546 -81.02537 40128 ft 479 kts 187°
2026-05-04 12:30 33.17906 -81.02472 40133 ft 476 kts 187°
2026-05-04 12:30 33.11312 -81.02415 40142 ft 475 kts 187°
2026-05-04 12:31 33.04687 -81.02358 40137 ft 476 kts 187°
2026-05-04 12:31 32.98039 -81.02300 40144 ft 477 kts 187°
2026-05-04 12:32 32.88068 -81.02211 40144 ft 477 kts 187°
2026-05-04 12:33 32.81461 -81.02152 40118 ft 477 kts 187°
2026-05-04 12:33 32.74813 -81.02093 40138 ft 477 kts 187°
2026-05-04 12:34 32.68151 -81.02034 40140 ft 478 kts 187°
2026-05-04 12:34 32.61533 -81.01975 40143 ft 478 kts 187°
2026-05-04 12:35 32.54850 -81.01916 40109 ft 478 kts 187°
2026-05-04 12:35 32.48242 -81.01932 40131 ft 477 kts 188°
2026-05-04 12:36 32.41609 -81.02072 40146 ft 477 kts 189°
2026-05-04 12:36 32.34957 -81.02196 40139 ft 477 kts 188°
2026-05-04 12:37 32.28350 -81.02301 40117 ft 477 kts 188°
2026-05-04 12:37 32.21708 -81.02415 40149 ft 477 kts 189°
2026-05-04 12:38 32.15057 -81.02534 40149 ft 477 kts 189°
2026-05-04 12:38 32.08446 -81.02651 40112 ft 477 kts 189°
2026-05-04 12:39 32.01790 -81.02767 40071 ft 477 kts 189°
2026-05-04 12:39 31.95155 -81.02914 40104 ft 476 kts 189°
2026-05-04 12:40 31.88525 -81.03120 40110 ft 476 kts 189°
2026-05-04 12:40 31.81926 -81.03323 40114 ft 476 kts 189°
2026-05-04 12:41 31.75283 -81.03518 40082 ft 477 kts 189°
2026-05-04 12:41 31.68644 -81.03709 40119 ft 476 kts 190°
2026-05-04 12:42 31.62036 -81.03901 40130 ft 477 kts 190°
2026-05-04 12:42 31.55403 -81.04141 40117 ft 475 kts 191°
2026-05-04 12:43 31.48843 -81.04574 40129 ft 475 kts 192°
2026-05-04 12:43 31.42242 -81.05024 40128 ft 475 kts 192°
2026-05-04 12:44 31.35637 -81.05444 40135 ft 475 kts 192°
2026-05-04 12:44 31.29024 -81.05855 40139 ft 476 kts 192°
2026-05-04 12:45 31.22422 -81.06231 40139 ft 478 kts 190°
2026-05-04 12:45 31.15751 -81.06365 40136 ft 478 kts 189°
2026-05-04 12:46 31.09117 -81.06451 40135 ft 479 kts 190°
2026-05-04 12:46 31.02450 -81.06571 40138 ft 479 kts 190°
2026-05-04 12:47 30.95771 -81.06710 40134 ft 479 kts 190°
2026-05-04 12:47 30.89096 -81.06851 40132 ft 479 kts 190°
2026-05-04 12:48 30.82463 -81.06990 40126 ft 479 kts 190°
2026-05-04 12:48 30.75786 -81.07129 40131 ft 478 kts 190°
2026-05-04 12:49 30.69124 -81.07267 40129 ft 478 kts 190°
2026-05-04 12:49 30.62497 -81.07404 40089 ft 478 kts 191°
2026-05-04 12:50 30.55876 -81.07722 40129 ft 474 kts 193°
2026-05-04 12:50 30.49281 -81.08166 40132 ft 474 kts 193°
2026-05-04 12:51 30.44911 -81.08452 40131 ft 475 kts 193°